Location: Peebles
(55.6412°N, 3.1714°W)
Time: 15:28:56
(UTC+01:00)

IRS-1C Rocket - Pass Details

Date: 26 September 2021
Orbit: 800 x 806 km, 98.9° (Epoch: 17 October)

Event Time Altitude Azimuth Distance (km) Brightness Sun altitude
Rises 20:07:36 0° 168° (SSE) 3,301 7.0 -10.2°
Reaches altitude 10° 20:09:56 10° 170° (S) 2,374 6.3 -10.5°
Maximum altitude 20:15:10 72° 255° (WSW) 848 4.4 -11.3°
Drops below altitude 10° 20:20:27 10° 340° (NNW) 2,390 7.1 -12.0°
Sets 20:22:48 0° 343° (NNW) 3,325 7.8 -12.3°
